Location: Doverdale
(52.2833°N, 2.2000°W)
Time: 03:02:50
(UTC+00:00)

Cosmos 1980 Rocket - Pass Details

Date: 01 March 2021
Orbit: 828 x 851 km, 71.0° (Epoch: 15 April)

Event Time Altitude Azimuth Distance (km) Brightness Sun altitude
Rises 22:58:46 0° 313° (NW) 3,422 6.1 -41.9°
Reaches altitude 10° 23:03:11 10° 345° (NNW) 2,489 5.2 -42.2°
Maximum altitude 23:05:11 12° 6° (N) 2,366 5.0 -42.3°
Enters shadow 23:06:31 11° 20° (NNE) 2,422 4.9 -42.4°
